Concordia, KS

6:24 PM CDT on July 25, 2017 (GMT -0500)
Blosser Municipal

Weather History for KCNK - April, 2013

Change the Weather History Date:

Wednesday, April 24, 2013

  Actual Average Record
Temperature  
Mean Temperature 42 °F 56 °F  
Max Temperature 59 °F 68 °F 98 °F (1989)
Min Temperature 25 °F 44 °F 25 °F (1967)
Degree Days  
Heating Degree Days 23 10  
Month to date heating degree days 479 320  
Since 1 July heating degree days 5315 5211  
Cooling Degree Days 0 1  
Month to date cooling degree days 0 9  
Year to date cooling degree days 0 10  
Moisture  
Dew Point 26 °F    
Average Humidity 56    
Maximum Humidity 81    
Minimum Humidity 30    
Precipitation  
Precipitation T in 0.10 in 2.94 in (1904)
Month to date precipitation 3.48 1.88  
Year to date precipitation 5.85 5.26  
Snow  
Snow 0.00 in 0.00 in T in (1950)
Month to date snowfall 2.4 0.5  
Year to date snowfall 20.3 13.7  
Since 1 July snowfall 28.8 20.2  
Snow Depth 0.00 in    
Sea Level Pressure  
Sea Level Pressure 30.22 in    
Wind  
Wind Speed 9 mph (WSW)    
Max Wind Speed 31 mph    
Max Gust Speed 39 mph    
Visibility 10 miles    
Events      
T = Trace of Precipitation, MM = Missing Value Source: NWS Daily Summary

Daily Weather History Graph

Daily Weather History Graph

Search for Another Location

Airport or City:

Trip Planner

Search our weather history database for the weather conditions in past years. The results will help you decide how hot, cold, wet, or windy it might be!

Date:

Astronomy

Apr. 24, 2013 Rise Set
Actual Time 6:40 AM CDT 8:17 PM CDT
Civil Twilight 6:11 AM CDT 8:46 PM CDT
Nautical Twilight 5:37 AM CDT 9:20 PM CDT
Astronomical Twilight 5:00 AM CDT 9:57 PM CDT
Moon 7:22 PM CDT (4/24) 5:44 AM CDT (4/24)
Length of Visible Light 14h 34m
Length of Day
13h 37m
Waxing Gibbous, 98% of the Moon is Illuminated
Apr 24
Waxing Gibbous
Apr 25
Full
May 2
Last Quarter
May 9
New
May 17
First Quarter

Hourly Weather History & Observations

Time (CDT) Temp. Windchill Dew Point Humidity Pressure Visibility Wind Dir Wind Speed Gust Speed Precip Events Conditions
12:55 AM 30.0 °F 26.5 °F 21.0 °F 69% 30.28 in 10.0 mi NW 3.5 mph - N/A   Clear
1:55 AM 27.0 °F 21.6 °F 21.0 °F 78% 30.28 in 10.0 mi West 4.6 mph - N/A   Clear
2:55 AM 26.1 °F 19.4 °F 19.9 °F 78% 30.27 in 10.0 mi WSW 5.8 mph - N/A   Clear
3:55 AM 26.1 °F 18.4 °F 19.9 °F 78% 30.27 in 10.0 mi WSW 6.9 mph - N/A   Clear
4:55 AM 25.0 °F 18.1 °F 19.0 °F 78% 30.26 in 10.0 mi WSW 5.8 mph - N/A   Clear
5:55 AM 25.0 °F 18.1 °F 19.0 °F 78% 30.26 in 10.0 mi WSW 5.8 mph - N/A   Clear
6:55 AM 27.0 °F 19.5 °F 19.9 °F 75% 30.26 in 10.0 mi WSW 6.9 mph - N/A   Clear
7:55 AM 30.0 °F 25.2 °F 21.9 °F 72% 30.25 in 10.0 mi SW 4.6 mph - N/A   Clear
8:55 AM 35.1 °F 28.6 °F 23.0 °F 61% 30.26 in 10.0 mi SW 8.1 mph - N/A   Clear
9:55 AM 39.0 °F 32.8 °F 24.1 °F 55% 30.24 in 10.0 mi SW 9.2 mph - N/A   Clear
10:55 AM 43.0 °F 37.2 °F 30.0 °F 60% 30.25 in 10.0 mi SSW 10.4 mph - N/A   Clear
11:55 AM 46.0 °F 40.2 °F 32.0 °F 58% 30.26 in 10.0 mi SW 12.7 mph - N/A   Clear
12:55 PM 48.9 °F - 33.1 °F 54% 30.23 in 10.0 mi SSW 13.8 mph - N/A   Clear
1:55 PM 53.1 °F - 33.1 °F 47% 30.20 in 10.0 mi West 15.0 mph 20.7 mph N/A   Clear
2:55 PM 55.0 °F - 30.0 °F 38% 30.19 in 10.0 mi WSW 15.0 mph 24.2 mph N/A   Clear
3:55 PM 55.9 °F - 30.0 °F 37% 30.17 in 10.0 mi WSW 11.5 mph 25.3 mph N/A   Clear
4:55 PM 57.9 °F - 28.9 °F 33% 30.15 in 10.0 mi SW 15.0 mph 23.0 mph N/A   Clear
5:55 PM 57.9 °F - 28.0 °F 32% 30.13 in 10.0 mi SW 13.8 mph - N/A   Clear
6:55 PM 57.0 °F - 28.0 °F 33% 30.12 in 10.0 mi SW 12.7 mph - N/A   Mostly Cloudy
7:55 PM 57.0 °F - 26.1 °F 30% 30.13 in 10.0 mi West 15.0 mph - 0.00 in   Overcast
8:35 PM 53.6 °F - 28.4 °F 38% 30.14 in 10.0 mi North 10.4 mph 21.9 mph N/A   Mostly Cloudy
8:55 PM 51.1 °F - 28.0 °F 41% 30.17 in 10.0 mi North 9.2 mph - N/A   Partly Cloudy
9:55 PM 45.0 °F 41.8 °F 32.0 °F 60% 30.22 in 10.0 mi North 5.8 mph - N/A   Clear
10:55 PM 44.1 °F 40.1 °F 33.1 °F 65% 30.24 in 10.0 mi NNE 6.9 mph - N/A   Clear
11:55 PM 39.9 °F 36.7 °F 32.0 °F 73% 30.25 in 10.0 mi North 4.6 mph - N/A   Clear